Weather History for KFAR - October, 2014

Change the Weather History Date:

Wednesday, October 29, 2014

  Actual Average Record
Temperature  
Mean Temperature 39 °F 39 °F  
Max Temperature 43 °F 49 °F 78 °F (1950)
Min Temperature 34 °F 30 °F 3 °F (1895)
Degree Days  
Heating Degree Days 26 26  
Month to date heating degree days 436 554  
Since 1 July heating degree days 628 824  
Cooling Degree Days 0 0  
Month to date cooling degree days 0 0  
Year to date cooling degree days 544 548  
Moisture  
Dew Point 28 °F    
Average Humidity 68    
Maximum Humidity 79    
Minimum Humidity 57    
Precipitation  
Precipitation 0.00 in 0.05 in 1.56 in (2004)
Month to date precipitation 0.27 2.06  
Year to date precipitation 19.18 20.69  
Snow  
Snow 0.00 in 0.10 in 4.50 in (1929)
Month to date snowfall T 0.6  
Since 1 July snowfall T 0.6  
Since 1 September snowfall T 0.6  
Snow Depth 0.00 in    
Sea Level Pressure  
Sea Level Pressure 30.11 in    
Wind  
Wind Speed 8 mph (West)    
Max Wind Speed 20 mph    
Max Gust Speed 23 mph    
Visibility 10 miles    
Events      
T = Trace of Precipitation, MM = Missing Value Source: NWS Daily Summary

Daily Weather History Graph

Daily Weather History Graph

Search for Another Location

Airport or City:

Trip Planner

Search our weather history database for the weather conditions in past years. The results will help you decide how hot, cold, wet, or windy it might be!

Date:

Astronomy

Oct. 29, 2014 Rise Set
Actual Time 8:05 AM CDT 6:15 PM CDT
Civil Twilight 7:33 AM CDT 6:47 PM CDT
Nautical Twilight 6:58 AM CDT 7:23 PM CDT
Astronomical Twilight 6:22 AM CDT 7:58 PM CDT
Moon 1:30 PM CDT (10/29) 11:23 PM CDT (10/29)
Length of Visible Light 11h 13m
Length of Day
10h 10m
Waxing Crescent, 34% of the Moon is Illuminated
Oct 29
Waxing Crescent
Oct 30
First Quarter
Nov 6
Full
Nov 14
Last Quarter
Nov 22
New

Hourly Weather History & Observations

Time (CDT) Temp. Windchill Dew Point Humidity Pressure Visibility Wind Dir Wind Speed Gust Speed Precip Events Conditions
12:15 AM 37.9 °F 29.6 °F 28.0 °F 68% 30.09 in 10.0 mi NW 13.8 mph - N/A   Overcast
12:53 AM 37.9 °F 29.2 °F 28.0 °F 68% 30.12 in 10.0 mi NW 15.0 mph - N/A   Overcast
1:04 AM 37.9 °F 29.2 °F 27.0 °F 65% 30.09 in 10.0 mi NW 15.0 mph - N/A   Overcast
1:53 AM 37.0 °F 29.3 °F 27.0 °F 67% 30.13 in 10.0 mi NNW 11.5 mph - N/A   Overcast
2:32 AM 35.1 °F 27.9 °F 27.0 °F 72% 30.11 in 10.0 mi NW 9.2 mph - N/A   Mostly Cloudy
2:40 AM 35.1 °F 29.3 °F 27.0 °F 72% 30.11 in 10.0 mi WNW 6.9 mph - N/A   Overcast
2:53 AM 35.1 °F 28.6 °F 27.0 °F 72% 30.15 in 10.0 mi NW 8.1 mph - N/A   Overcast
3:53 AM 35.1 °F 29.3 °F 27.0 °F 72% 30.15 in 10.0 mi WNW 6.9 mph - N/A   Overcast
4:02 AM 36.0 °F 31.1 °F 27.0 °F 70% 30.12 in 10.0 mi NW 5.8 mph - N/A   Overcast
4:53 AM 36.0 °F 29.0 °F 28.0 °F 73% 30.15 in 10.0 mi NNW 9.2 mph - N/A   Overcast
5:53 AM 37.0 °F 30.4 °F 28.9 °F 73% 30.16 in 10.0 mi NNW 9.2 mph - N/A   Overcast
6:53 AM 36.0 °F 30.3 °F 28.9 °F 76% 30.17 in 10.0 mi NNW 6.9 mph - N/A   Overcast
7:53 AM 36.0 °F 32.1 °F 28.9 °F 76% 30.17 in 10.0 mi NNW 4.6 mph - N/A   Overcast
8:53 AM 36.0 °F 33.3 °F 28.0 °F 73% 30.18 in 10.0 mi WNW 3.5 mph - N/A   Overcast
9:53 AM 37.4 °F 32.1 °F 28.4 °F 70% 30.14 in 10.0 mi West 6.9 mph - N/A   Overcast
10:53 AM 37.0 °F 31.6 °F 27.0 °F 67% 30.18 in 10.0 mi West 6.9 mph - N/A   Overcast
11:53 AM 37.9 °F 32.1 °F 27.0 °F 65% 30.17 in 10.0 mi SW 8.1 mph - N/A   Overcast
12:53 PM 39.0 °F 33.4 °F 28.0 °F 65% 30.14 in 10.0 mi SSW 8.1 mph - N/A   Overcast
1:53 PM 39.9 °F 35.8 °F 28.0 °F 63% 30.13 in 10.0 mi SW 5.8 mph - N/A   Overcast
2:53 PM 42.1 °F 37.7 °F 28.9 °F 60% 30.09 in 10.0 mi South 6.9 mph - N/A   Partly Cloudy
3:53 PM 42.1 °F 37.1 °F 28.9 °F 60% 30.08 in 10.0 mi South 8.1 mph - N/A   Clear
4:53 PM 42.1 °F 37.1 °F 28.0 °F 58% 30.07 in 10.0 mi South 8.1 mph - N/A   Clear
5:53 PM 42.1 °F 39.2 °F 28.9 °F 60% 30.07 in 10.0 mi SSE 4.6 mph - N/A   Overcast
6:53 PM 42.1 °F 37.1 °F 28.9 °F 60% 30.05 in 10.0 mi SSE 8.1 mph - N/A   Mostly Cloudy
7:53 PM 41.0 °F 35.2 °F 28.9 °F 62% 30.04 in 10.0 mi SE 9.2 mph - N/A   Clear
8:53 PM 41.0 °F 34.3 °F 30.0 °F 65% 30.03 in 10.0 mi SSE 11.5 mph - N/A   Mostly Cloudy
9:53 PM 41.0 °F 33.9 °F 30.0 °F 65% 30.03 in 10.0 mi SSE 12.7 mph - N/A   Overcast
10:53 PM 41.0 °F 35.8 °F 30.9 °F 67% 30.04 in 10.0 mi SSE 8.1 mph - N/A   Overcast
11:53 PM 39.9 °F 32.5 °F 33.1 °F 77% 30.02 in 10.0 mi SSE 12.7 mph - N/A   Overcast